This demonstration page uses our WeatherBlox Daily Observations layout. Learn more.

Left ArrowRight Arrow

Hourly Observations for January 18, 2022

Temp ( °F °C ) Dew Point ( °F °C ) Humidity (%) Winds ( mph kmh ) Pressure ( in mb ) Visibility ( mi km ) Precip ( " mm )
12:15 am 00:15 Clear 24 -4.2 19 -7.2 80 80 W 6 9 29.92 1013 10 16 0.00 0.00
12:35 am 00:35 Clear 25 -3.8 20 -6.8 80 80 W 10 17 29.91 1013 10 16 0.00 0.00
12:55 am 00:55 Clear 26 -3.2 21 -6.3 79 79 NW 8 13 29.90 1012 10 16 0.00 0.00
1:15 am 01:15 Clear 26 -3.2 20 -6.6 78 78 Calm 29.90 1012 10 16 0.00 0.00
1:35 am 01:35 Clear 25 -3.9 20 -6.9 80 80 W 5 7 29.91 1013 10 16 0.00 0.00
1:55 am 01:55 Clear 24 -4.5 19 -7 83 83 Calm 29.90 1013 10 16 0.00 0.00
2:15 am 02:15 Clear 24 -4.2 20 -6.9 82 82 W 3 6 29.90 1012 10 16 0.00 0.00
2:35 am 02:35 Clear 22 -5.7 18 -8 84 84 WSW 3 6 29.91 1013 10 16 0.00 0.00
2:55 am 02:55 Clear 22 -5.7 18 -8 84 84 WNW 6 9 29.90 1013 10 16 0.00 0.00
3:15 am 03:15 Clear 23 -4.9 19 -7.1 85 85 W 8 13 29.90 1012 10 16 0.00 0.00
3:35 am 03:35 Clear 22 -5.4 18 -7.6 85 85 W 8 13 29.89 1012 10 16 0.00 0.00
3:55 am 03:55 Clear 22 -5.3 19 -7.2 87 87 WSW 6 9 29.90 1013 10 16 0.00 0.00
4:15 am 04:15 Clear 23 -4.9 19 -7.1 85 85 W 6 9 29.88 1012 10 16 0.00 0.00
4:35 am 04:35 Clear 23 -5.1 19 -7 87 87 W 5 7 29.88 1012 10 16 0.00 0.00
4:55 am 04:55 Clear 22 -5.5 19 -7.2 88 88 WNW 7 11 29.88 1012 10 16 0.00 0.00
5:15 am 05:15 Clear 22 -5.8 18 -7.7 87 87 WNW 7 11 29.89 1012 10 16 0.00 0.00
5:35 am 05:35 Clear 23 -5 20 -6.9 87 87 W 9 15 29.88 1012 10 16 0.00 0.00
5:55 am 05:55 Clear 23 -5 19 -7 86 86 W 6 9 29.89 1012 10 16 0.00 0.00
6:15 am 06:15 Clear 22 -5.5 19 -7.4 87 87 WNW 7 11 29.89 1012 10 16 0.00 0.00
6:35 am 06:35 Clear 22 -5.8 18 -7.7 87 87 WNW 6 9 29.88 1012 10 16 0.00 0.00
6:55 am 06:55 Clear 22 -5.8 18 -7.6 87 87 WNW 8 13 29.88 1012 10 16 0.00 0.00
7:15 am 07:15 Clear 21 -6.3 17 -8.2 87 87 W 8 13 29.89 1012 10 16 0.00 0.00
7:35 am 07:35 Clear 22 -5.6 19 -7.5 87 87 W 7 11 29.88 1012 10 16 0.00 0.00
7:55 am 07:55 Clear 22 -5.7 18 -7.6 87 87 W 6 9 29.88 1012 10 16 0.00 0.00
8:15 am 08:15 Sunny 21 -6.2 18 -8 87 87 WNW 8 13 29.90 1012 10 16 0.00 0.00
8:35 am 08:35 Sunny 24 -4.2 21 -6 87 87 WNW 7 11 29.87 1011 10 16 0.00 0.00
8:55 am 08:55 Sunny 30 -1.2 25 -4 82 82 NW 8 13 29.84 1010 10 16 0.00 0.00
9:15 am 09:15 Sunny 32 0.1 26 -3.6 76 76 WNW 8 13 29.83 1010 10 16 0.00 0.00
9:35 am 09:35 Sunny 35 1.7 27 -2.8 72 72 WNW 9 15 29.81 1009 10 16 0.00 0.00
9:55 am 09:55 Sunny 37 3 27 -3 65 65 W 8 13 29.79 1009 10 16 0.00 0.00
10:15 am 10:15 Sunny 37 2.7 27 -3 66 66 W 5 7 29.80 1009 10 16 0.00 0.00
10:35 am 10:35 Sunny 38 3.5 27 -2.9 63 63 WNW 6 9 29.80 1009 10 16 0.00 0.00
10:55 am 10:55 Sunny 42 5.3 27 -2.7 57 57 WNW 9 15 29.78 1009 10 16 0.00 0.00
11:15 am 11:15 Sunny 45 7.4 27 -2.9 48 48 WNW 12 19 29.76 1008 10 16 0.00 0.00
11:35 am 11:35 Sunny 51 10.5 26 -3.1 39 39 W 12 19 29.73 1007 10 16 0.00 0.00
11:55 am 11:55 Sunny 53 11.6 25 -3.9 34 34 WNW 15 24 29.71 1006 10 16 0.00 0.00
12:15 pm 12:15 Sunny 52 11.1 24 -4.4 34 34 W 15 24 29.70 1006 10 16 0.00 0.00
12:35 pm 12:35 Sunny 53 11.5 24 -4.2 33 33 WNW 13 20 29.72 1006 10 16 0.00 0.00
12:55 pm 12:55 Sunny 53 11.9 26 -3.5 34 34 W 10 17 29.70 1006 10 16 0.00 0.00
1:15 pm 13:15 Sunny 55 12.9 26 -3.3 33 33 WNW 13 20 29.68 1005 10 16 0.00 0.00
1:35 pm 13:35 Sunny 57 14 26 -3.2 30 30 NNW 12 19 29.68 1005 10 16 0.00 0.00
1:55 pm 13:55 Sunny 60 15.3 24 -4.5 25 25 NNW 16 26 29.66 1005 10 16 0.00 0.00
2:15 pm 14:15 Sunny 59 15.1 25 -3.9 27 27 N 15 24 29.67 1005 10 16 0.00 0.00
2:35 pm 14:35 Sunny 59 15 26 -3.6 28 28 N 16 26 29.68 1005 10 16 0.00 0.00
2:55 pm 14:55 Sunny 58 14.7 25 -3.7 28 28 N 13 20 29.68 1005 10 16 0.00 0.00
3:15 pm 15:15 Sunny 59 14.8 25 -4 27 27 N 20 31 29.69 1005 10 16 0.00 0.00
3:35 pm 15:35 Sunny 58 14.7 25 -4 27 27 N 15 24 29.70 1006 10 16 0.00 0.00
3:55 pm 15:55 Sunny 58 14.6 25 -4.1 27 27 N 13 20 29.71 1006 10 16 0.00 0.00
4:15 pm 16:15 Sunny 57 13.9 23 -4.8 27 27 N 13 20 29.73 1007 10 16 0.00 0.00
4:35 pm 16:35 Sunny 55 12.6 24 -4.7 30 30 N 10 17 29.75 1007 10 16 0.00 0.00
4:55 pm 16:55 Sunny 54 12 24 -4.7 31 31 N 13 20 29.76 1008 10 16 0.00 0.00
5:15 pm 17:15 Sunny 52 11.1 24 -4.5 33 33 N 15 24 29.78 1009 10 16 0.00 0.00
5:35 pm 17:35 Sunny 50 9.9 24 -4.4 37 37 N 8 13 29.81 1010 10 16 0.00 0.00
5:55 pm 17:55 Clear 45 7.1 23 -5.1 42 42 NNW 7 11 29.85 1011 10 16 0.00 0.00
6:15 pm 18:15 Clear 42 5.4 22 -5.7 45 45 N 8 13 29.87 1012 10 16 0.00 0.00
6:35 pm 18:35 Clear 40 4.4 22 -5.6 49 49 N 9 15 29.90 1013 10 16 0.00 0.00
6:55 pm 18:55 Clear 38 3.5 22 -5.4 53 53 N 10 17 29.92 1013 10 16 0.00 0.00
7:15 pm 19:15 Clear 44 6.6 27 -2.6 52 52 NNE 16 26 29.91 1013 10 16 0.00 0.00
7:35 pm 19:35 Clear 43 6.3 29 -1.5 58 58 NNE 20 31 29.94 1014 10 16 0.00 0.00
7:55 pm 19:55 Clear 40 4.6 29 -1.5 65 65 N 21 33 29.98 1015 10 16 0.00 0.00
8:15 pm 20:15 Clear 39 3.7 28 -2.2 66 66 NNE 21 33 30.00 1016 10 16 0.00 0.00
8:35 pm 20:35 Clear 37 3 28 -2.5 67 67 NNE 18 30 30.02 1017 10 16 0.00 0.00
8:55 pm 20:55 Clear 37 2.5 27 -2.6 69 69 N 20 31 30.03 1017 10 16 0.00 0.00
9:15 pm 21:15 Clear 35 1.9 26 -3.2 69 69 N 16 26 30.05 1018 10 16 0.00 0.00
9:35 pm 21:35 Clear 35 1.4 26 -3.5 70 70 N 14 22 30.06 1018 10 16 0.00 0.00
9:55 pm 21:55 Clear 34 0.9 25 -3.7 72 72 N 15 24 30.09 1019 10 16 0.00 0.00
10:15 pm 22:15 Clear 32 0 25 -4 75 75 N 13 20 30.11 1020 10 16 0.00 0.00
10:35 pm 22:35 Clear 32 0.1 25 -4.1 74 74 NNE 15 24 30.13 1020 10 16 0.00 0.00
10:55 pm 22:55 Clear 31 -0.3 23 -5.1 70 70 N 14 22 30.14 1021 10 16 0.00 0.00
11:15 pm 23:15 Clear 30 -1 22 -5.5 72 72 N 15 24 30.17 1022 10 16 0.00 0.00
11:35 pm 23:35 Clear 29 -1.5 20 -6.8 68 68 N 16 26 30.18 1022 10 16 0.00 0.00
11:55 pm 23:55 Partly Cloudy 28 -2 18 -7.7 65 65 N 20 31 30.21 1023 10 16 0.00 0.00

Powered by AerisWeather